1511546401.04,40008,10.13,73672.3,-3.39,-29.35,-29.13,0,*51
1511546402.27,40009,10.13,73670.0,-3.39,-29.45,-29.13,0,*57
1511546403.5,40010,10.13,73670.8,-3.39,-29.45,-29.13,0,*5F
1511546404.78,40011,10.06,73662.5,-3.37,-29.29,-29.13,0,*5A
1511546406.07,40012,10.06,73662.3,-3.37,-29.35,-29.01,0,*57
1511546407.32,40013,10.13,73668.5,-3.39,-29.29,-29.01,0,*55
1511546408.58,40014,10.13,73668.0,-3.39,-29.35,-29.13,0,*5C
1511546409.86,40015,10.13,73668.5,-3.37,-29.29,-29.13,0,*5E
1511546411.14,40016,10.13,73672.3,-3.37,-29.35,-29.13,0,*50
1511546412.4,40017,10.13,73674.0,-3.39,-29.35,-29.13,0,*5F
1511546413.66,40018,10.13,73678.0,-3.37,-29.45,-29.17,0,*5D
1511546414.89,40019,10.13,73668.0,-3.39,-29.45,-29.17,0,*52
1511546416.15,40020,10.13,73676.3,-3.39,-29.35,-29.29,0,*52
1511546417.41,40021,10.13,73674.0,-3.39,-29.51,-29.17,0,*5C
1511546418.67,40022,10.13,73672.3,-3.37,-29.45,-29.17,0,*54
1511546419.94,40023,10.13,73670.0,-3.37,-29.61,-29.35,0,*53
1511546421.22,40024,10.13,73668.0,-3.37,-29.51,-29.29,0,*5A
1511546422.48,40025,10.13,73670.8,-3.39,-29.51,-29.17,0,*58
1511546423.75,40026,10.13,73674.3,-3.37,-29.61,-29.35,0,*56
1511546424.99,40027,10.13,73670.8,-3.39,-29.61,-29.35,0,*59
1511546426.28,40028,10.13,73670.8,-3.37,-29.51,-29.17,0,*5B
1511546427.51,40029,10.13,73668.8,-3.39,-29.61,-29.35,0,*57
1511546428.72,40030,10.06,73670.0,-3.39,-29.61,-29.45,0,*58
1511546429.96,40031,10.13,73668.8,-3.39,-29.61,-29.35,0,*5E
1511546431.25,40032,10.13,73670.8,-3.37,-29.51,-29.35,0,*50
1511546432.49,40033,10.13,73672.5,-3.39,-29.61,-29.35,0,*5C
1511546433.76,40034,10.13,73668.3,-3.37,-29.61,-29.35,0,*55
1511546435.05,40035,10.13,73670.5,-3.37,-29.51,-29.35,0,*57
1511546436.32,40036,10.13,73664.3,-3.37,-29.61,-29.35,0,*57
1511546437.58,40037,10.13,73668.8,-3.37,-29.61,-29.35,0,*56
1511546438.79,40038,10.06,73664.0,-3.39,-29.61,-29.45,0,*50
1511546440.06,40039,10.13,73660.8,-3.37,-29.61,-29.35,0,*58
1511546441.28,40040,10.13,73664.8,-3.39,-29.61,-29.29,0,*55
1511546442.55,40041,10.13,73664.5,-3.37,-29.51,-29.45,0,*53
1511546443.82,40042,10.13,73664.5,-3.37,-29.51,-29.45,0,*50
1511546445.11,40043,10.13,73666.8,-3.37,-29.51,-29.29,0,*5B
1511546446.4,40044,10.13,73660.0,-3.37,-29.51,-29.17,0,*51
1511546447.63,40045,10.13,73660.0,-3.39,-29.45,-29.17,0,*5B
1511546448.86,40046,10.13,73658.5,-3.39,-29.45,-29.17,0,*58
1511546450.12,40047,10.06,73664.5,-3.37,-29.45,-29.29,0,*5A
1511546451.38,40048,10.06,73662.8,-3.35,-29.39,-29.13,0,*55
1511546452.67,40049,10.13,73666.0,-3.37,-29.51,-29.29,0,*51
1511546453.96,40050,10.13,73666.8,-3.37,-29.51,-29.29,0,*59
1511546455.21,40051,10.13,73672.3,-3.37,-29.61,-29.29,0,*5B
1511546456.42,40052,10.13,73676.3,-3.35,-29.57,-29.23,0,*55
1511546457.71,40053,10.13,73676.0,-3.37,-29.51,-29.29,0,*5A
1511546458.92,40054,10.13,73676.5,-3.35,-29.57,-29.23,0,*53
1511546460.19,40055,10.13,73676.0,-3.37,-29.61,-29.35,0,*52
1511546461.43,40056,10.13,73670.8,-3.37,-29.61,-29.45,0,*56
1511546462.66,40057,10.13,73666.8,-3.35,-29.57,-29.29,0,*5A
1511546463.93,40058,10.13,73664.3,-3.37,-29.61,-29.35,0,*5F
1511546465.17,40059,10.13,73668.8,-3.37,-29.61,-29.45,0,*59
1511546466.41,40060,10.06,73666.8,-3.37,-29.67,-29.45,0,*55
1511546467.67,40061,10.13,73674.3,-3.37,-29.67,-29.35,0,*53
1511546468.94,40062,10.13,73682.8,-3.37,-29.45,-29.17,0,*50
1511546470.2,40063,10.06,73674.8,-3.37,-29.45,-29.17,0,*51
1511546471.49,40064,10.13,73672.8,-3.37,-29.51,-29.17,0,*53
1511546472.7,40065,10.13,73672.3,-3.35,-29.45,-29.23,0,*52
1511546473.93,40066,10.13,73668.3,-3.35,-29.45,-29.29,0,*5B
1511546475.17,40067,10.06,73668.8,-3.35,-29.45,-29.13,0,*53
1511546476.4,40068,10.13,73674.5,-3.35,-29.57,-29.29,0,*56
1511546477.64,40069,10.13,73674.0,-3.37,-29.61,-29.45,0,*5A
1511546478.87,40070,10.13,73674.3,-3.37,-29.79,-29.61,0,*5D
1511546480.11,40071,10.06,73668.3,-3.35,-29.73,-29.61,0,*54
1511546481.32,40072,10.13,73668.0,-3.35,-29.79,-29.61,0,*5D
1511546482.53,40073,10.06,73670.5,-3.35,-29.61,-29.57,0,*50
1511546483.75,40074,10.13,73668.3,-3.35,-29.61,-29.45,0,*54
1511546484.98,40075,10.13,73668.5,-3.35,-29.73,-29.61,0,*50
1511546486.25,40076,10.13,73668.8,-3.33,-29.73,-29.57,0,*50
1511546487.46,40077,10.13,73668.8,-3.35,-29.79,-29.61,0,*58
1511546488.69,40078,10.06,73662.5,-3.35,-29.73,-29.61,0,*5D
1511546489.95,40079,10.13,73668.5,-3.37,-29.89,-29.79,0,*52
1511546491.19,40080,10.06,73666.8,-3.37,-29.83,-29.61,0,*57
1511546492.4,40081,10.13,73668.3,-3.39,-29.83,-29.61,0,*58
1511546493.63,40082,10.13,73670.5,-3.35,-29.79,-29.73,0,*51
1511546494.87,40083,10.13,73668.0,-3.35,-29.83,-29.73,0,*55
1511546496.08,40084,10.13,73670.8,-3.35,-29.79,-29.61,0,*54
1511546497.32,40085,10.06,73672.3,-3.37,-29.79,-29.61,0,*57
1511546498.59,40086,10.06,73674.8,-3.37,-29.83,-29.51,0,*52
1511546499.85,40087,10.13,73674.5,-3.37,-29.79,-29.51,0,*56
1511546501.09,40088,10.06,73668.0,-3.37,-29.67,-29.45,0,*53
1511546502.32,40089,10.06,73666.3,-3.35,-29.45,-29.13,0,*53
1511546503.56,40090,10.06,73664.3,-3.35,-29.57,-29.29,0,*51
1511546504.79,40091,10.06,73666.8,-3.35,-29.73,-29.45,0,*5C
1511546506.01,40092,10.13,73668.0,-3.35,-29.61,-29.45,0,*5C
1511546507.23,40093,10.06,73670.8,-3.35,-29.61,-29.45,0,*5D
1511546508.46,40094,10.06,73670.5,-3.37,-29.79,-29.61,0,*57
1511546509.7,40095,10.13,73672.0,-3.35,-29.73,-29.57,0,*5B
1511546510.93,40096,10.13,73674.0,-3.35,-29.73,-29.45,0,*5B
1511546512.17,40097,10.13,73668.3,-3.37,-29.79,-29.61,0,*54
1511546513.43,40098,10.06,73670.3,-3.37,-29.79,-29.51,0,*58
1511546514.67,40099,10.06,73668.3,-3.35,-29.73,-29.57,0,*57
1511546515.91,40100,10.13,73674.0,-3.37,-29.83,-29.61,0,*5E
1511546517.17,40101,10.06,73672.8,-3.37,-29.83,-29.51,0,*5C
1511546518.41,40102,10.06,73664.0,-3.37,-29.79,-29.61,0,*59
1511546519.64,40103,10.13,73670.3,-3.35,-29.73,-29.45,0,*56
1511546520.88,40104,10.13,73672.5,-3.35,-29.73,-29.57,0,*52
1511546522.12,40105,10.06,73670.5,-3.35,-29.73,-29.45,0,*50
1511546523.38,40106,10.13,73670.5,-3.37,-29.79,-29.51,0,*5E
1511546524.62,40107,10.13,73666.3,-3.35,-29.73,-29.57,0,*51
1511546525.86,40108,10.13,73674.0,-3.35,-29.73,-29.57,0,*5E
1511546527.07,40109,10.13,73674.5,-3.35,-29.61,-29.45,0,*5F
1511546528.31,40110,10.13,73672.5,-3.35,-29.73,-29.57,0,*57
1511546529.55,40111,10.06,73672.0,-3.35,-29.73,-29.57,0,*56
1511546530.78,40112,10.13,73672.3,-3.35,-29.73,-29.57,0,*55
1511546532.02,40113,10.13,73670.3,-3.35,-29.73,-29.61,0,*51
1511546533.23,40114,10.13,73664.3,-3.35,-29.79,-29.61,0,*5C
1511546534.5,40115,10.06,73662.0,-3.37,-29.89,-29.67,0,*56
1511546535.73,40116,10.13,73664.0,-3.35,-29.95,-29.73,0,*5F
1511546536.97,40117,10.13,73660.8,-3.35,-29.79,-29.73,0,*5C
1511546538.18,40118,10.06,73658.5,-3.35,-29.79,-29.57,0,*55
1511546539.4,40119,10.13,73660.5,-3.35,-29.79,-29.57,0,*54
1511546540.61,40120,10.06,73652.5,-3.35,-29.79,-29.57,0,*5E
1511546541.84,40121,10.13,73656.3,-3.35,-30.01,-29.79,0,*54
1511546543.07,40122,10.06,73656.5,-3.35,-30.01,-29.95,0,*55
1511546544.31,40123,10.13,73658.8,-3.35,-29.95,-29.73,0,*59
1511546545.57,40124,10.06,73658.0,-3.35,-29.73,-29.73,0,*56
1511546546.83,40125,10.13,73664.0,-3.37,-30.05,-29.83,0,*53
1511546548.06,40126,10.13,73664.8,-3.39,-30.01,-29.83,0,*5A
1511546549.31,40127,10.13,73664.0,-3.37,-30.01,-29.79,0,*50
1511546550.57,40128,10.13,73664.8,-3.37,-30.05,-29.83,0,*5E
1511546551.82,40129,10.06,73660.8,-3.39,-30.01,-30.05,0,*53
1511546553.08,40130,10.06,73664.5,-3.39,-30.01,-30.01,0,*5F
1511546554.29,40131,10.13,73666.5,-3.39,-29.83,-29.61,0,*52
1511546555.52,40132,10.13,73664.0,-3.39,-29.89,-29.61,0,*5B
1511546556.79,40133,10.06,73662.3,-3.37,-29.89,-29.67,0,*52
1511546558.03,40134,10.13,73668.8,-3.39,-29.89,-29.83,0,*51
1511546559.3,40135,10.13,73666.0,-3.37,-29.89,-29.67,0,*54
1511546560.53,40136,10.13,73666.0,-3.37,-29.83,-29.79,0,*52
1511546561.74,40137,10.13,73664.8,-3.35,-29.79,-29.61,0,*5D
1511546562.95,40138,10.13,73660.3,-3.39,-29.79,-29.61,0,*5E
1511546564.21,40139,10.06,73660.5,-3.37,-29.79,-29.51,0,*52
1511546565.42,40140,10.13,73666.0,-3.39,-29.79,-29.61,0,*51
1511546566.65,40141,10.06,73666.8,-3.39,-29.67,-29.51,0,*5C
1511546567.89,40142,10.06,73664.8,-3.39,-29.79,-29.51,0,*50
1511546569.09,40143,10.13,73666.3,-3.39,-29.79,-29.61,0,*52
1511546570.33,40144,10.13,73668.3,-3.37,-29.79,-29.61,0,*5B
1511546571.59,40145,10.06,73664.0,-3.37,-29.79,-29.51,0,*59
1511546572.83,40146,10.13,73664.5,-3.37,-29.67,-29.61,0,*56
1511546574.09,40147,10.06,73664.0,-3.37,-29.79,-29.51,0,*5B
1511546575.36,40148,10.13,73664.5,-3.37,-29.79,-29.51,0,*54
1511546576.62,40149,10.06,73668.3,-3.37,-29.67,-29.51,0,*5A
1511546577.89,40150,10.06,73662.8,-3.37,-29.67,-29.35,0,*50
1511546579.13,40151,10.06,73662.3,-3.39,-29.67,-29.35,0,*5F
1511546580.37,40152,10.06,73660.0,-3.37,-29.61,-29.45,0,*53
1511546581.63,40153,10.13,73666.8,-3.37,-29.61,-29.51,0,*57
1511546582.87,40154,10.13,73664.5,-3.39,-29.61,-29.35,0,*5C
1511546584.14,40155,10.13,73664.0,-3.37,-29.61,-29.35,0,*53
1511546585.39,40156,10.13,73662.0,-3.37,-29.61,-29.29,0,*5D
1511546586.63,40157,10.13,73662.3,-3.35,-29.57,-29.29,0,*5B
1511546587.86,40158,10.13,73654.5,-3.35,-29.61,-29.39,0,*50
1511546589.1,40159,10.13,73656.0,-3.35,-29.61,-29.39,0,*51
1511546590.33,40160,10.13,73652.0,-3.35,-29.61,-29.39,0,*5B
1511546591.59,40161,10.13,73652.8,-3.33,-29.61,-29.29,0,*5D
1511546592.85,40162,10.13,73654.3,-3.33,-29.61,-29.39,0,*5F
1511546594.11,40163,10.06,73648.0,-3.33,-29.61,-29.39,0,*5E
1511546595.35,40164,10.13,73654.3,-3.35,-29.57,-29.39,0,*5A
1511546596.61,40165,10.06,73654.3,-3.35,-29.73,-29.39,0,*5D
1511546597.82,40166,10.06,73658.5,-3.35,-29.61,-29.45,0,*56
1511546599.06,40167,10.06,73658.3,-3.33,-29.61,-29.45,0,*51
1511546600.3,40168,10.06,73656.8,-3.35,-29.45,-29.13,0,*5D
1511546601.53,40169,10.13,73658.8,-3.35,-29.45,-29.13,0,*5C
1511546602.74,40170,10.13,73660.8,-3.35,-29.57,-29.23,0,*54
1511546603.98,40171,10.13,73660.8,-3.33,-29.45,-29.23,0,*50
1511546605.21,40172,10.06,73660.8,-3.35,-29.45,-29.13,0,*56
1511546606.47,40173,10.06,73660.8,-3.33,-29.45,-29.13,0,*51
1511546607.73,40174,10.06,73660.8,-3.33,-29.57,-29.13,0,*55
1511546608.96,40175,10.06,73662.5,-3.33,-29.57,-29.23,0,*57
1511546610.22,40176,10.06,73660.0,-3.33,-29.61,-29.29,0,*5B
1511546611.49,40177,10.13,73666.5,-3.29,-29.57,-29.35,0,*59
1511546612.72,40178,10.06,73658.0,-3.33,-29.57,-29.23,0,*5A
1511546613.96,40179,10.06,73662.5,-3.33,-29.57,-29.23,0,*5B
1511546615.22,40180,10.13,73660.3,-3.33,-29.57,-29.29,0,*57
1511546616.45,40181,10.06,73662.0,-3.33,-29.57,-29.23,0,*5C
1511546617.71,40182,10.13,73664.0,-3.33,-29.57,-29.29,0,*55
1511546619.0,40183,10.06,73662.0,-3.29,-29.51,-29.17,0,*54
1511546620.26,40184,10.13,73664.5,-3.29,-29.51,-29.07,0,*52
1511546621.52,40185,10.06,73660.3,-3.29,-29.39,-29.07,0,*5D
1511546622.8,40186,10.06,73662.8,-3.29,-29.39,-29.17,0,*5F
1511546624.06,40187,10.06,73658.8,-3.29,-29.39,-29.07,0,*5F
1511546625.35,40188,10.06,73658.0,-3.29,-29.51,-29.17,0,*5F
1511546626.61,40189,10.13,73660.5,-3.27,-29.51,-29.17,0,*50
1511546627.86,40190,10.06,73664.5,-3.29,-29.39,-29.07,0,*59
1511546629.12,40191,10.06,73658.0,-3.27,-29.39,-29.17,0,*57
1511546630.38,40192,10.06,73664.5,-3.27,-29.51,-29.17,0,*5A
1511546631.59,40193,10.13,73666.0,-3.27,-29.57,-29.23,0,*5A
1511546632.79,40194,10.13,73664.3,-3.27,-29.67,-29.23,0,*5E
1511546634.0,40195,10.06,73666.3,-3.27,-29.57,-29.23,0,*5C
1511546635.28,40196,10.06,73672.0,-3.25,-29.51,-29.29,0,*51
1511546636.49,40197,10.06,73668.0,-3.27,-29.57,-29.23,0,*5E
1511546637.73,40198,10.06,73670.8,-3.27,-29.57,-29.35,0,*56
1511546638.99,40199,10.06,73672.0,-3.29,-29.57,-29.35,0,*59
1511546640.2,40200,10.13,73676.8,-3.27,-29.57,-29.23,0,*53
1511546641.4,40201,10.13,73672.8,-3.27,-29.67,-29.23,0,*51
1511546642.64,40202,10.06,73670.8,-3.27,-29.57,-29.35,0,*56
1511546643.88,40203,10.06,73674.3,-3.27,-29.67,-29.35,0,*54
1511546645.11,40204,10.06,73670.5,-3.27,-29.67,-29.39,0,*5F
1511546646.34,40205,10.13,73672.0,-3.27,-29.67,-29.35,0,*52
1511546647.63,40206,10.13,73672.3,-3.25,-29.51,-29.29,0,*5B
1511546648.89,40207,10.06,73672.8,-3.27,-29.73,-29.51,0,*57
1511546650.14,40208,10.13,73674.3,-3.29,-29.57,-29.39,0,*5E
1511546651.4,40209,10.06,73674.5,-3.25,-29.61,-29.29,0,*57
1511546652.6,40210,10.06,73674.8,-3.27,-29.57,-29.23,0,*52
1511546653.86,40211,10.13,73674.0,-3.29,-29.57,-29.39,0,*56
1511546655.1,40212,10.06,73674.3,-3.27,-29.57,-29.35,0,*57
1511546656.37,40213,10.06,73670.8,-3.29,-29.57,-29.35,0,*58
1511546657.66,40214,10.06,73666.0,-3.25,-29.51,-29.17,0,*55
1511546658.86,40215,10.06,73672.8,-3.27,-29.57,-29.23,0,*57
1511546660.13,40216,10.13,73678.8,-3.27,-29.51,-29.35,0,*55
1511546661.42,40217,10.06,73666.0,-3.29,-29.51,-29.35,0,*5A
1511546662.65,40218,10.06,73668.3,-3.27,-29.51,-29.23,0,*5C
1511546663.92,40219,10.06,73670.3,-3.27,-29.51,-29.35,0,*5A
1511546665.14,40220,10.06,73670.3,-3.23,-29.61,-29.29,0,*5A
1511546666.4,40221,10.06,73668.8,-3.25,-29.61,-29.29,0,*5D
1511546667.64,40222,10.06,73668.8,-3.27,-29.57,-29.35,0,*54
1511546668.87,40223,10.06,73670.8,-3.25,-29.61,-29.45,0,*55
1511546670.13,40224,10.06,73664.3,-3.27,-29.73,-29.51,0,*56
1511546671.39,40225,10.06,73668.0,-3.27,-29.73,-29.51,0,*57
1511546672.62,40226,10.06,73670.5,-3.27,-29.67,-29.51,0,*51
1511546673.86,40227,10.06,73668.5,-3.27,-29.67,-29.51,0,*50
1511546675.1,40228,10.06,73668.0,-3.27,-29.57,-29.51,0,*5C
1511546676.31,40229,10.06,73670.0,-3.27,-29.79,-29.57,0,*57
1511546677.52,40230,10.06,73668.8,-3.27,-29.79,-29.57,0,*5F
1511546678.72,40231,10.06,73670.5,-3.27,-29.79,-29.57,0,*5E
1511546679.93,40232,10.06,73668.8,-3.27,-29.79,-29.67,0,*5E
1511546681.14,40233,10.06,73668.3,-3.27,-29.79,-29.67,0,*5F
1511546682.4,40234,10.13,73670.5,-3.29,-29.89,-29.67,0,*59
1511546683.63,40235,10.06,73668.8,-3.27,-29.73,-29.57,0,*50
1511546684.89,40236,10.13,73672.3,-3.29,-29.79,-29.73,0,*51
1511546686.1,40237,10.13,73670.8,-3.27,-29.79,-29.67,0,*5B
1511546687.35,40238,10.06,73670.0,-3.29,-29.73,-29.57,0,*53
1511546688.59,40239,10.06,73666.5,-3.27,-29.67,-29.39,0,*51
1511546689.82,40240,10.13,73670.8,-3.27,-29.67,-29.51,0,*51
1511546691.08,40241,10.13,73672.5,-3.29,-29.73,-29.57,0,*5D
1511546692.34,40242,10.06,73672.8,-3.29,-29.73,-29.57,0,*5E
1511546693.6,40243,10.06,73674.0,-3.29,-29.73,-29.57,0,*5F
1511546694.83,40244,10.06,73672.5,-3.27,-29.73,-29.67,0,*55
1511546696.09,40245,10.06,73670.3,-3.29,-29.73,-29.67,0,*5A
1511546697.32,40246,10.06,73670.0,-3.29,-29.79,-29.67,0,*53
1511546698.58,40247,10.13,73672.3,-3.27,-29.89,-29.73,0,*56
1511546699.81,40248,10.06,73670.3,-3.29,-29.79,-29.57,0,*5E
1511546701.07,40249,10.06,73666.8,-3.29,-29.57,-29.39,0,*5B
1511546702.34,40250,10.06,73666.0,-3.29,-29.57,-29.51,0,*5D
1511546703.6,40251,10.06,73670.5,-3.29,-29.57,-29.39,0,*52
1511546704.86,40252,10.06,73670.3,-3.29,-29.51,-29.23,0,*5C
1511546706.12,40253,10.06,73668.5,-3.27,-29.51,-29.35,0,*54
1511546707.38,40254,10.13,73670.5,-3.25,-29.45,-29.29,0,*59
1511546708.62,40255,10.06,73668.3,-3.27,-29.57,-29.51,0,*56
1511546709.86,40256,10.13,73668.8,-3.27,-29.67,-29.51,0,*56
1511546711.11,40257,10.06,73668.0,-3.29,-29.67,-29.39,0,*57
1511546712.35,40258,10.06,73674.8,-3.29,-29.67,-29.57,0,*50
1511546713.58,40259,10.06,73672.5,-3.27,-29.73,-29.67,0,*59
1511546714.82,40260,10.06,73670.5,-3.29,-29.79,-29.57,0,*54
1511546716.07,40261,10.06,73674.3,-3.29,-29.73,-29.57,0,*5F
1511546717.28,40262,10.06,73674.8,-3.27,-29.79,-29.67,0,*5B
1511546718.51,40263,10.06,73676.3,-3.27,-29.73,-29.57,0,*53
1511546719.77,40264,10.06,73672.3,-3.27,-29.73,-29.51,0,*52
1511546721.01,40265,10.06,73678.8,-3.27,-29.57,-29.51,0,*55
1511546722.27,40266,10.06,73674.8,-3.29,-29.67,-29.51,0,*5B
1511546723.51,40267,10.13,73672.8,-3.27,-29.67,-29.39,0,*5A
1511546724.77,40268,10.06,73672.8,-3.29,-29.57,-29.39,0,*58
1511546726.01,40269,10.06,73668.5,-3.27,-29.57,-29.51,0,*59
1511546727.24,40270,10.06,73666.8,-3.27,-29.57,-29.51,0,*51
1511546728.48,40271,10.06,73664.0,-3.27,-29.57,-29.35,0,*52
1511546729.69,40272,10.13,73670.0,-3.27,-29.57,-29.23,0,*56
1511546730.95,40273,10.06,73660.8,-3.29,-29.57,-29.39,0,*52
1511546732.15,40274,10.06,73666.0,-3.27,-29.57,-29.23,0,*50
1511546733.39,40275,10.06,73664.8,-3.27,-29.39,-29.23,0,*59
1511546734.65,40276,10.13,73670.3,-3.27,-29.51,-29.35,0,*53
1511546735.94,40277,10.13,73664.0,-3.25,-29.51,-29.29,0,*5D
1511546737.17,40278,10.06,73664.3,-3.27,-29.57,-29.39,0,*57
1511546738.41,40279,10.06,73660.3,-3.27,-29.57,-29.35,0,*5A
1511546739.66,40280,10.06,73666.5,-3.25,-29.45,-29.29,0,*50
1511546740.93,40281,10.06,73662.0,-3.27,-29.51,-29.35,0,*5B
1511546742.2,40282,10.06,73662.5,-3.27,-29.51,-29.35,0,*58
1511546743.45,40283,10.06,73660.3,-3.25,-29.45,-29.29,0,*53
1511546744.74,40284,10.13,73658.8,-3.25,-29.35,-29.17,0,*5E
1511546746.01,40285,10.13,73662.0,-3.27,-29.51,-29.35,0,*5F
1511546747.26,40286,10.06,73662.3,-3.25,-29.45,-29.17,0,*5B
1511546748.52,40287,10.06,73664.3,-3.25,-29.45,-29.29,0,*57
1511546749.8,40288,10.06,73664.3,-3.25,-29.35,-29.29,0,*5F
1511546751.07,40289,10.06,73666.5,-3.25,-29.45,-29.35,0,*54
1511546752.33,40290,10.06,73666.0,-3.25,-29.45,-29.35,0,*5C
1511546753.6,40291,10.06,73668.0,-3.25,-29.45,-29.35,0,*5D
1511546754.84,40292,10.06,73662.8,-3.25,-29.45,-29.45,0,*59
1511546756.13,40293,10.06,73668.5,-3.25,-29.51,-29.35,0,*5A
1511546757.43,40294,10.06,73664.0,-3.25,-29.51,-29.35,0,*5D
1511546758.69,40295,10.06,73668.5,-3.25,-29.51,-29.45,0,*5B
1511546759.92,40296,10.06,73668.3,-3.23,-29.57,-29.39,0,*53
1511546761.22,40297,10.13,73672.3,-3.25,-29.51,-29.51,0,*5C
1511546762.43,40298,10.06,73668.5,-3.23,-29.61,-29.57,0,*50
1511546763.69,40299,10.06,73666.5,-3.25,-29.67,-29.51,0,*57
1511546764.96,40300,10.06,73678.3,-3.25,-29.67,-29.51,0,*56
1511546766.17,40301,10.06,73672.3,-3.23,-29.61,-29.45,0,*52
1511546767.4,40302,10.06,73672.8,-3.23,-29.45,-29.39,0,*5C
1511546768.63,40303,10.06,73674.5,-3.27,-29.57,-29.39,0,*5A
1511546769.84,40304,10.06,73674.3,-3.23,-29.57,-29.45,0,*52
1511546771.11,40305,10.06,73670.8,-3.25,-29.61,-29.51,0,*55
1511546772.32,40306,10.06,73674.3,-3.23,-29.61,-29.45,0,*55
1511546773.58,40307,10.06,73674.5,-3.23,-29.51,-29.39,0,*5C
1511546774.87,40308,10.06,73674.0,-3.25,-29.51,-29.35,0,*59
1511546776.14,40309,10.06,73668.3,-3.25,-29.51,-29.45,0,*5F
1511546777.43,40310,10.06,73666.8,-3.25,-29.51,-29.35,0,*50
1511546778.7,40311,10.06,73668.0,-3.25,-29.51,-29.45,0,*56
1511546779.91,40312,10.06,73668.3,-3.23,-29.61,-29.45,0,*50
1511546781.17,40313,10.06,73660.8,-3.25,-29.61,-29.51,0,*52
1511546782.43,40314,10.06,73666.8,-3.25,-29.67,-29.51,0,*53
1511546783.65,40315,10.06,73670.0,-3.23,-29.57,-29.45,0,*52
1511546784.94,40316,10.06,73664.8,-3.25,-29.51,-29.35,0,*56
1511546786.23,40317,10.13,73668.8,-3.25,-29.51,-29.35,0,*57
1511546787.47,40318,10.06,73672.0,-3.23,-29.51,-29.45,0,*59
1511546788.71,40319,10.06,73674.8,-3.25,-29.61,-29.45,0,*5D
1511546789.94,40320,10.06,73674.8,-3.25,-29.61,-29.61,0,*51
1511546791.21,40321,10.06,73668.8,-3.25,-29.51,-29.45,0,*55
1511546792.44,40322,10.06,73670.3,-3.23,-29.45,-29.29,0,*5F
1511546793.7,40323,10.06,73666.3,-3.23,-29.39,-29.39,0,*54
1511546794.96,40324,10.06,73668.0,-3.25,-29.45,-29.35,0,*52
1511546796.2,40325,10.06,73666.0,-3.25,-29.61,-29.45,0,*52
1511546797.46,40326,10.06,73666.5,-3.25,-29.67,-29.51,0,*52
1511546798.68,40327,10.06,73670.3,-3.23,-29.57,-29.57,0,*50
1511546799.94,40328,10.06,73672.3,-3.25,-29.61,-29.51,0,*5A
1511546801.21,40329,10.06,73672.8,-3.25,-29.51,-29.45,0,*5D
1511546802.47,40330,10.06,73674.5,-3.25,-29.67,-29.51,0,*55
1511546803.7,40331,10.06,73676.8,-3.23,-29.57,-29.39,0,*5F
1511546804.97,40332,10.06,73672.0,-3.25,-29.61,-29.51,0,*51
1511546806.23,40333,10.06,73672.5,-3.25,-29.51,-29.45,0,*56
1511546807.46,40334,10.06,73678.5,-3.23,-29.39,-29.23,0,*59
1511546808.73,40335,10.06,73676.3,-3.25,-29.45,-29.35,0,*52
1511546809.99,40336,10.06,73674.5,-3.23,-29.39,-29.29,0,*51
1511546811.24,40337,10.06,73672.3,-3.23,-29.39,-29.13,0,*59
1511546812.47,40338,10.06,73674.5,-3.23,-29.39,-29.23,0,*55
1511546813.73,40339,10.06,73674.3,-3.23,-29.39,-29.39,0,*5F
1511546814.96,40340,10.06,73672.5,-3.23,-29.45,-29.29,0,*5B
1511546816.17,40341,10.06,73678.5,-3.23,-29.57,-29.45,0,*53
1511546817.4,40342,10.13,73680.5,-3.23,-29.45,-29.39,0,*58
1511546818.66,40343,10.06,73676.5,-3.21,-29.45,-29.39,0,*5B
1511546819.88,40344,10.06,73678.3,-3.23,-29.57,-29.45,0,*56
1511546821.09,40345,10.06,73678.0,-3.23,-29.57,-29.57,0,*54
1511546822.32,40346,10.06,73672.3,-3.25,-29.61,-29.61,0,*51
1511546823.54,40347,10.13,73680.5,-3.23,-29.57,-29.57,0,*56
1511546824.75,40348,10.06,73676.3,-3.23,-29.57,-29.45,0,*5A
1511546825.98,40349,10.06,73678.3,-3.25,-29.67,-29.61,0,*58
1511546827.19,40350,10.06,73682.8,-3.23,-29.61,-29.61,0,*50
1511546828.45,40351,10.06,73682.3,-3.25,-29.73,-29.67,0,*52
1511546829.68,40352,10.06,73680.3,-3.25,-29.61,-29.61,0,*54
1511546830.91,40353,10.06,73678.3,-3.23,-29.73,-29.61,0,*50
1511546832.14,40354,10.06,73672.0,-3.25,-29.61,-29.61,0,*52
1511546833.4,40355,10.06,73676.3,-3.25,-29.73,-29.83,0,*5C
1511546834.61,40356,10.06,73676.5,-3.23,-29.67,-29.61,0,*50
1511546835.84,40357,10.06,73676.3,-3.25,-29.61,-29.61,0,*51
1511546837.06,40358,10.06,73676.5,-3.23,-29.57,-29.57,0,*58
1511546838.29,40359,10.13,73682.0,-3.25,-29.61,-29.61,0,*5F
1511546839.58,40360,10.06,73686.0,-3.25,-29.51,-29.35,0,*57
1511546840.88,40361,10.13,73682.5,-3.25,-29.51,-29.51,0,*54
1511546842.09,40362,10.06,73678.8,-3.23,-29.61,-29.57,0,*54
1511546843.32,40363,10.06,73672.3,-3.25,-29.67,-29.61,0,*50
1511546844.56,40364,10.06,73676.5,-3.25,-29.83,-29.67,0,*5B
1511546845.85,40365,10.06,73678.3,-3.25,-29.51,-29.51,0,*50
1511546847.15,40366,10.06,73674.0,-3.25,-29.51,-29.35,0,*51
1511546848.41,40367,10.06,73674.8,-3.25,-29.45,-29.35,0,*55
1511546849.68,40368,10.06,73676.3,-3.25,-29.45,-29.35,0,*5A
1511546850.92,40369,10.06,73672.8,-3.25,-29.45,-29.45,0,*5C
1511546852.18,40370,10.06,73674.3,-3.25,-29.51,-29.45,0,*51
1511546853.45,40371,10.06,73674.8,-3.25,-29.51,-29.45,0,*50
1511546854.72,40372,10.06,73674.3,-3.25,-29.51,-29.45,0,*53
1511546855.97,40373,10.06,73668.3,-3.25,-29.73,-29.61,0,*54
1511546857.21,40374,10.06,73676.0,-3.25,-29.67,-29.67,0,*50
1511546858.51,40375,10.06,73674.3,-3.25,-29.51,-29.51,0,*51
1511546859.74,40376,10.06,73676.0,-3.23,-29.45,-29.39,0,*5F
1511546861.0,40377,10.13,73676.0,-3.25,-29.51,-29.45,0,*56
1511546862.24,40378,10.06,73674.8,-3.27,-29.57,-29.39,0,*56
1511546863.47,40379,10.06,73678.3,-3.23,-29.45,-29.39,0,*50
1511546864.76,40380,10.06,73674.8,-3.25,-29.51,-29.35,0,*59
1511546866.03,40381,10.06,73672.3,-3.25,-29.51,-29.45,0,*5F
1511546867.26,40382,10.06,73680.3,-3.25,-29.61,-29.61,0,*59
1511546868.52,40383,10.06,73682.0,-3.25,-29.73,-29.67,0,*5D
1511546869.79,40384,10.06,73682.8,-3.25,-29.51,-29.45,0,*5A
1511546871.02,40385,10.06,73678.0,-3.23,-29.57,-29.39,0,*50
1511546872.23,40386,10.06,73674.5,-3.27,-29.67,-29.67,0,*5F
1511546873.44,40387,10.06,73674.5,-3.27,-29.67,-29.57,0,*5D
1511546874.66,40388,10.13,73678.8,-3.27,-29.67,-29.67,0,*51
1511546875.94,40389,10.06,73672.8,-3.25,-29.51,-29.29,0,*5D
1511546877.2,40390,10.06,73672.5,-3.25,-29.45,-29.29,0,*50
1511546878.46,40391,10.06,73672.8,-3.25,-29.45,-29.35,0,*5C
1511546879.73,40392,10.06,73678.3,-3.25,-29.51,-29.45,0,*5D
1511546881.02,40393,10.06,73672.8,-3.25,-29.51,-29.35,0,*5B
1511546882.28,40394,10.06,73674.0,-3.25,-29.45,-29.13,0,*5D
1511546883.56,40395,10.06,73678.5,-3.25,-29.35,-29.29,0,*52
1511546884.85,40396,10.06,73672.0,-3.25,-29.35,-29.01,0,*5B
1511546886.13,40397,10.06,73674.0,-3.25,-29.35,-29.29,0,*50
1511546887.36,40398,10.06,73676.5,-3.23,-29.39,-29.23,0,*5F
1511546888.63,40399,10.06,73678.8,-3.25,-29.45,-29.35,0,*54
1511546889.89,40400,10.06,73676.5,-3.25,-29.45,-29.35,0,*53
1511546891.19,40401,10.06,73674.3,-3.25,-29.51,-29.35,0,*57
1511546892.48,40402,10.06,73678.8,-3.25,-29.51,-29.35,0,*54
1511546893.78,40403,10.06,73676.8,-3.25,-29.51,-29.35,0,*55
1511546895.0,40404,10.06,73674.5,-3.23,-29.45,-29.29,0,*5C
1511546896.23,40405,10.06,73678.0,-3.23,-29.57,-29.29,0,*5E
1511546897.53,40406,10.06,73678.0,-3.25,-29.51,-29.35,0,*50
1511546898.73,40407,10.06,73674.3,-3.23,-29.57,-29.23,0,*56